When you browse on this site, cookies collect data to enhance your experience and personalize the content and advertising you see.
Visit our Privacy Policy to learn more. By continuing to use the site, you agree to this use of cookies and data.
  • In Sweden
  • List of Countries
  • For 7 days
  • Water Temperature
  • Satellite Maps
  • Weather Map
  • Weather Widgets
  • user-avatar
    Login

    Hourly Weather Coleraine

    Today, 18 June, Tuesday

    Time Temperature Precipitation Wind Pressure Humidity
    00:00 +9°C° 0 mm 3 mps 756 mmHg 93%
    01:00 +8°C° 0 mm 3 mps 755 mmHg 94%
    02:00 +7°C° 0 mm 4 mps 755 mmHg 94%
    03:00 +7°C° 0 mm 4 mps 755 mmHg 95%
    04:00 +7°C° 0 mm 4 mps 755 mmHg 94%
    05:00 +8°C° 0 mm 5 mps 755 mmHg 93%
    06:00 +8°C° 0 mm 5 mps 755 mmHg 92%
    07:00 +9°C° 0.1 mm 5 mps 755 mmHg 92%
    08:00 +9°C° 0.1 mm 5 mps 755 mmHg 91%
    09:00 +10°C° 0.1 mm 5 mps 755 mmHg 91%
    10:00 +12°C° 0.2 mm 5 mps 756 mmHg 89%
    11:00 +13°C° 0.2 mm 5 mps 756 mmHg 87%
    12:00 +14°C° 0.2 mm 5 mps 756 mmHg 85%
    13:00 +14°C° 0.3 mm 4 mps 756 mmHg 86%
    14:00 +14°C° 0.3 mm 3 mps 756 mmHg 86%
    15:00 +14°C° 0.3 mm 3 mps 756 mmHg 86%
    16:00 +15°C° 0.2 mm 2 mps 756 mmHg 87%
    17:00 +15°C° 0.2 mm 2 mps 755 mmHg 87%
    18:00 +15°C° 0.2 mm 2 mps 755 mmHg 87%
    19:00 +14°C° 0.2 mm 2 mps 755 mmHg 89%
    20:00 +13°C° 0.2 mm 1 mps 755 mmHg 91%
    21:00 +12°C° 0.2 mm 1 mps 755 mmHg 93%
    22:00 +11°C° 0 mm 1 mps 755 mmHg 93%
    23:00 +11°C° 0 mm 1 mps 755 mmHg 93%

    Tomorrow, 19 June, Wednesday

    Time Temperature Precipitation Wind Pressure Humidity
    00:00 +9°C° 0 mm 2 mps 755 mmHg 93%
    01:00 +9°C° 0 mm 2 mps 754 mmHg 93%
    02:00 +9°C° 0 mm 2 mps 754 mmHg 93%
    03:00 +8°C° 0 mm 2 mps 754 mmHg 93%
    04:00 +9°C° 0 mm 2 mps 754 mmHg 93%
    05:00 +9°C° 0 mm 2 mps 753 mmHg 94%
    06:00 +10°C° 0 mm 3 mps 753 mmHg 94%
    07:00 +11°C° 0.1 mm 3 mps 753 mmHg 92%
    08:00 +12°C° 0.1 mm 3 mps 753 mmHg 90%
    09:00 +13°C° 0.1 mm 3 mps 753 mmHg 87%
    10:00 +13°C° 0.3 mm 3 mps 753 mmHg 87%
    11:00 +13°C° 0.3 mm 3 mps 753 mmHg 86%
    12:00 +13°C° 0.3 mm 3 mps 753 mmHg 85%
    13:00 +13°C° 0.5 mm 3 mps 753 mmHg 85%
    14:00 +14°C° 0.5 mm 3 mps 753 mmHg 84%
    15:00 +14°C° 0.5 mm 3 mps 753 mmHg 83%
    16:00 +13°C° 0.4 mm 3 mps 753 mmHg 85%
    17:00 +12°C° 0.4 mm 3 mps 752 mmHg 87%
    18:00 +11°C° 0.4 mm 3 mps 752 mmHg 89%
    19:00 +11°C° 0.1 mm 3 mps 752 mmHg 90%
    20:00 +10°C° 0.1 mm 3 mps 753 mmHg 90%
    21:00 +10°C° 0.1 mm 3 mps 753 mmHg 91%
    22:00 +9°C° 0 mm 3 mps 753 mmHg 91%
    23:00 +7°C° 0 mm 4 mps 753 mmHg 91%

    Day after tomorrow, 20 June, Thursday

    Time Temperature Precipitation Wind Pressure Humidity
    00:00 +6°C° 0 mm 4 mps 753 mmHg 91%
    01:00 +6°C° 0 mm 4 mps 753 mmHg 91%
    02:00 +5°C° 0 mm 4 mps 753 mmHg 92%
    03:00 +5°C° 0 mm 4 mps 753 mmHg 92%
    04:00 +6°C° 0 mm 4 mps 753 mmHg 92%
    05:00 +7°C° 0 mm 4 mps 753 mmHg 92%
    06:00 +8°C° 0 mm 4 mps 753 mmHg 92%
    07:00 +9°C° 0.2 mm 5 mps 754 mmHg 89%
    08:00 +9°C° 0.2 mm 5 mps 754 mmHg 87%
    09:00 +10°C° 0.2 mm 5 mps 754 mmHg 84%
    10:00 +11°C° 0.2 mm 6 mps 755 mmHg 79%
    11:00 +13°C° 0.2 mm 6 mps 755 mmHg 73%
    12:00 +13°C° 0.2 mm 6 mps 755 mmHg 68%
    13:00 +13°C° 0.1 mm 6 mps 755 mmHg 69%
    14:00 +13°C° 0.1 mm 6 mps 756 mmHg 70%
    15:00 +13°C° 0.1 mm 6 mps 756 mmHg 71%
    16:00 +12°C° 0.1 mm 5 mps 756 mmHg 72%
    17:00 +12°C° 0.1 mm 5 mps 756 mmHg 73%
    18:00 +12°C° 0.1 mm 4 mps 756 mmHg 74%
    19:00 +11°C° 0 mm 3 mps 756 mmHg 79%
    20:00 +9°C° 0 mm 2 mps 757 mmHg 84%
    21:00 +9°C° 0 mm 1 mps 757 mmHg 89%
    22:00 +8°C° 0.1 mm 2 mps 757 mmHg 90%
    23:00 +8°C° 0.1 mm 2 mps 757 mmHg 91%

    21 June, Friday

    Time Temperature Precipitation Wind Pressure Humidity
    00:00 +7°C° 0.1 mm 2 mps 757 mmHg 92%
    01:00 +7°C° 0.2 mm 2 mps 758 mmHg 92%
    02:00 +7°C° 0.2 mm 3 mps 758 mmHg 92%
    03:00 +7°C° 0.2 mm 3 mps 758 mmHg 93%
    04:00 +8°C° 0 mm 3 mps 758 mmHg 92%
    05:00 +7°C° 0 mm 4 mps 758 mmHg 91%
    06:00 +8°C° 0 mm 4 mps 758 mmHg 90%
    07:00 +10°C° 0 mm 4 mps 759 mmHg 85%
    08:00 +11°C° 0 mm 4 mps 759 mmHg 80%
    09:00 +12°C° 0 mm 4 mps 760 mmHg 74%
    10:00 +12°C° 0.2 mm 4 mps 760 mmHg 75%
    11:00 +12°C° 0.2 mm 4 mps 760 mmHg 76%
    12:00 +13°C° 0.2 mm 5 mps 760 mmHg 77%
    13:00 +13°C° 0.2 mm 4 mps 761 mmHg 76%
    14:00 +13°C° 0.2 mm 4 mps 761 mmHg 75%
    15:00 +13°C° 0.2 mm 4 mps 761 mmHg 74%
    16:00 +13°C° 0.1 mm 4 mps 761 mmHg 75%
    17:00 +12°C° 0.1 mm 3 mps 762 mmHg 76%
    18:00 +12°C° 0.1 mm 3 mps 762 mmHg 77%
    19:00 +12°C° 0 mm 2 mps 762 mmHg 81%
    20:00 +10°C° 0 mm 1 mps 762 mmHg 85%
    21:00 +8°C° 0 mm 0 mps 762 mmHg 90%
    22:00 +9°C° 0 mm 1 mps 762 mmHg 89%
    23:00 +8°C° 0 mm 1 mps 762 mmHg 89%

    22 June, Saturday

    Time Temperature Precipitation Wind Pressure Humidity
    00:00 +8°C° 0 mm 1 mps 762 mmHg 89%
    01:00 +8°C° 0 mm 1 mps 762 mmHg 89%
    02:00 +8°C° 0 mm 1 mps 762 mmHg 89%
    03:00 +8°C° 0 mm 1 mps 762 mmHg 89%
    04:00 +8°C° 0 mm 2 mps 762 mmHg 88%
    05:00 +8°C° 0 mm 2 mps 762 mmHg 87%
    06:00 +9°C° 0 mm 2 mps 762 mmHg 86%
    07:00 +10°C° 0 mm 2 mps 762 mmHg 84%
    08:00 +12°C° 0 mm 2 mps 762 mmHg 83%
    09:00 +13°C° 0 mm 2 mps 762 mmHg 81%
    10:00 +14°C° 0.2 mm 2 mps 762 mmHg 80%
    11:00 +15°C° 0.2 mm 2 mps 762 mmHg 80%
    12:00 +16°C° 0.2 mm 2 mps 762 mmHg 79%
    13:00 +16°C° 0.4 mm 2 mps 762 mmHg 81%
    14:00 +15°C° 0.4 mm 2 mps 762 mmHg 82%
    15:00 +15°C° 0.4 mm 2 mps 762 mmHg 83%
    16:00 +15°C° 0.2 mm 2 mps 762 mmHg 84%
    17:00 +15°C° 0.2 mm 2 mps 762 mmHg 84%
    18:00 +15°C° 0.2 mm 2 mps 762 mmHg 85%
    19:00 +14°C° 0 mm 2 mps 762 mmHg 88%
    20:00 +13°C° 0 mm 2 mps 763 mmHg 91%
    21:00 +12°C° 0 mm 2 mps 763 mmHg 94%
    22:00 +12°C° 0 mm 1 mps 763 mmHg 94%
    23:00 +12°C° 0 mm 1 mps 763 mmHg 94%

    23 June, Sunday

    Time Temperature Precipitation Wind Pressure Humidity
    00:00 +12°C° 0 mm 1 mps 763 mmHg 94%
    01:00 +12°C° 0 mm 1 mps 763 mmHg 94%
    02:00 +12°C° 0 mm 1 mps 763 mmHg 94%
    03:00 +12°C° 0 mm 1 mps 763 mmHg 94%
    04:00 +12°C° 0 mm 1 mps 763 mmHg 94%
    05:00 +12°C° 0 mm 1 mps 763 mmHg 93%
    06:00 +13°C° 0 mm 1 mps 763 mmHg 93%
    07:00 +14°C° 0 mm 1 mps 763 mmHg 90%
    08:00 +14°C° 0 mm 1 mps 763 mmHg 87%
    09:00 +15°C° 0 mm 1 mps 763 mmHg 84%
    10:00 +16°C° 0.2 mm 2 mps 763 mmHg 82%
    11:00 +17°C° 0.2 mm 2 mps 763 mmHg 79%
    12:00 +17°C° 0.2 mm 3 mps 763 mmHg 77%
    13:00 +17°C° 0.1 mm 3 mps 763 mmHg 76%
    14:00 +18°C° 0.1 mm 3 mps 763 mmHg 75%
    15:00 +18°C° 0.1 mm 3 mps 763 mmHg 74%
    16:00 +17°C° 0.1 mm 3 mps 763 mmHg 76%
    17:00 +17°C° 0.1 mm 3 mps 763 mmHg 78%
    18:00 +17°C° 0.1 mm 3 mps 763 mmHg 79%
    19:00 +14°C° 0 mm 3 mps 763 mmHg 82%
    20:00 +13°C° 0 mm 3 mps 763 mmHg 85%
    21:00 +13°C° 0 mm 2 mps 763 mmHg 88%
    22:00 +12°C° 0 mm 2 mps 763 mmHg 87%
    23:00 +12°C° 0 mm 2 mps 763 mmHg 87%
    Show more